Daglege Rapportar

Klikk her for oppdatering!


Detaljar i dag

21/7/18
Time         Wind Dir   Wind Spd  Wind Gust   Humidity       Temp  Raw Barom   Tot Rain Temp Out H Temp Out L  DailyRain   HourRain
                            mps        mps          %         C         mb         mm         C         C         mm         mm
0:00                0          0          0         46       17.8    1001.04    1255.00       17.8       17.8       0.00       0.00
1:00                0          0          0         54       16.3    1001.04    1255.00       17.8       16.2       0.00       0.00
2:00                0          0          0         53       16.3    1001.04    1255.00       17.8       15.6       0.00       0.00
3:00                0          0          0         50       16.4    1001.04    1255.00       17.8       15.5       0.00       0.00
4:00                0          0          0         58       15.2    1001.04    1255.00       17.8       15.2       0.00       0.00
5:00                0          0          0         56       15.6    1001.04    1255.00       17.8       15.2       0.00       0.00
6:00                0          0          0         65       15.8    1001.04    1255.00       17.8       15.2       0.00       0.00
7:00                0          0          0         63       16.5    1001.04    1255.00       17.8       15.2       0.00       0.00
8:00                0          0          0         63       17.3    1000.04    1255.00       17.8       15.2       0.00       0.00
9:00                0          0          0         68       17.5    1000.04    1255.00       17.8       15.2       0.00       0.00

 


Detaljar i gr

20/7/18
Time         Wind Dir   Wind Spd  Wind Gust   Humidity       Temp  Raw Barom   Tot Rain Temp Out H Temp Out L  DailyRain   HourRain
                            mps        mps          %         C         mb         mm         C         C         mm         mm
0:00                0          0          0         64       16.2    1005.04    1255.00       16.2       16.2       0.00       0.00
1:00                0          0          0         68       15.5    1005.04    1255.00       16.3       15.5       0.00       0.00
2:00                0          0          0         69       15.1    1005.04    1255.00       16.3       15.1       0.00       0.00
3:00                0          0          0         75       14.1    1005.04    1255.00       16.3       14.1       0.00       0.00
4:00                0          0          0         76       14.0    1005.04    1255.00       16.3       13.9       0.00       0.00
5:00                0          0          0         76       14.1    1005.04    1255.00       16.3       13.7       0.00       0.00
6:00                0          0          0         78       13.9    1005.04    1255.00       16.3       13.7       0.00       0.00
7:00                0          0          0         80       14.2    1004.04    1255.00       16.3       13.7       0.00       0.00
8:00                0          0          0         70       16.6    1004.04    1255.00       16.6       13.7       0.00       0.00
9:00                0          0          0         67       17.5    1004.04    1255.00       17.5       13.7       0.00       0.00
10:00               0          0          0         70       18.0    1004.04    1255.00       18.3       13.7       0.00       0.00
11:00               0          0          0         60       19.9    1004.04    1255.00       20.4       13.7       0.00       0.00
12:00               0          0          0         60       21.1    1003.04    1255.00       21.4       13.7       0.00       0.00
13:00               0          0          0         50       22.2    1002.04    1255.00       22.2       13.7       0.00       0.00
14:00               0          0          0         42       23.4    1002.04    1255.00       23.4       13.7       0.00       0.00
15:00               0          0          0         35       24.3    1001.04    1255.00       24.3       13.7       0.00       0.00
16:00               0          0          0         32       24.9    1001.04    1255.00       24.9       13.7       0.00       0.00
17:00               0          0          0         31       25.5    1000.04    1255.00       25.6       13.7       0.00       0.00
18:00               0          0          0         31       24.8    1000.04    1255.00       25.6       13.7       0.00       0.00
19:00               0          0          0         32       23.9    1000.04    1255.00       25.6       13.7       0.00       0.00
20:00               0          0          0         35       21.7    1001.04    1255.00       25.6       13.7       0.00       0.00
21:00               0          0          0         39       20.2    1001.04    1255.00       25.6       13.7       0.00       0.00
22:00               0          0          0         43       19.2    1001.04    1255.00       25.6       13.7       0.00       0.00
23:00               0          0          0         44       18.6    1001.04    1255.00       25.6       13.7       0.00       0.00